Nenana, AK

4:04 AM AKDT on August 18, 2017 (GMT -0800)
Nenana Municipal

Weather History for PANN - March, 2014

Change the Weather History Date:

Wednesday, March 12, 2014

  Actual Average Record
Temperature  
Mean Temperature 22 °F -  
Max Temperature 45 °F 21 °F 59 °F (1965)
Min Temperature 0 °F -3 °F -25 °F (2007)
Degree Days  
Heating Degree Days 42    
Moisture  
Dew Point 8 °F    
Average Humidity 67    
Maximum Humidity 100    
Minimum Humidity 48    
Precipitation  
Precipitation 0.08 in - - ()
Sea Level Pressure  
Sea Level Pressure 29.45 in    
Wind  
Wind Speed 5 mph (NNW)    
Max Wind Speed 25 mph    
Max Gust Speed -    
Visibility 10 miles    
Events Rain    
Averages and records for this station are not official NWS values.
T = Trace of Precipitation, MM = Missing Value Source: NWS Daily Summary

Daily Weather History Graph

Daily Weather History Graph

Search for Another Location

Airport or City:

Trip Planner

Search our weather history database for the weather conditions in past years. The results will help you decide how hot, cold, wet, or windy it might be!

Date:

Astronomy

Mar. 12, 2014 Rise Set
Actual Time 8:24 AM AKDT 7:48 PM AKDT
Civil Twilight 7:36 AM AKDT 8:36 PM AKDT
Nautical Twilight 6:39 AM AKDT 9:34 PM AKDT
Astronomical Twilight 5:37 AM AKDT 10:36 PM AKDT
Moon 3:28 PM AKDT (3/12) 7:06 AM AKDT (3/12)
Length of Visible Light 12h 59m
Length of Day
11h 23m
Waxing Gibbous, 86% of the Moon is Illuminated
Mar 12
Waxing Gibbous
Mar 16
Full
Mar 23
Last Quarter
Mar 30
New
Apr 7
First Quarter

Hourly Weather History & Observations

Time (AKDT) Temp. Windchill Dew Point Humidity Pressure Visibility Wind Dir Wind Speed Gust Speed Precip Events Conditions
12:53 AM 9.0 °F 0.6 °F -0.0 °F 67% 29.15 in 10.0 mi West 4.6 mph - 0.00 in   Clear
1:53 AM 8.1 °F -0.5 °F -0.9 °F 67% 29.17 in 10.0 mi WNW 4.6 mph - 0.00 in   Clear
2:53 AM 7.0 °F -3.3 °F -0.9 °F 70% 29.19 in 10.0 mi West 5.8 mph - 0.00 in   Clear
3:53 AM 8.1 °F -3.2 °F -0.9 °F 67% 29.22 in 10.0 mi West 6.9 mph - 0.00 in   Scattered Clouds
4:53 AM 7.0 °F -1.7 °F -2.0 °F 67% 29.23 in 10.0 mi Variable 4.6 mph - N/A   Clear
5:53 AM 8.1 °F -0.5 °F -0.9 °F 67% 29.25 in 10.0 mi West 4.6 mph - N/A   Clear
6:53 AM 5.0 °F - -2.0 °F 73% 29.27 in 10.0 mi Calm Calm - N/A   Clear
7:53 AM 1.9 °F -5.6 °F -4.0 °F 76% 29.29 in 10.0 mi ENE 3.5 mph - N/A   Clear
8:53 AM 1.9 °F -5.6 °F -4.0 °F 76% 29.30 in 10.0 mi ENE 3.5 mph - N/A   Clear
9:53 AM -0.0 °F - -5.1 °F 79% 29.31 in 10.0 mi Calm Calm - N/A   Clear
10:53 AM 6.1 °F - -0.9 °F 73% 29.34 in 10.0 mi Calm Calm - 0.00 in   Clear
11:53 AM 10.9 °F - -0.0 °F 61% 29.37 in 10.0 mi Calm Calm - N/A   Clear
12:53 PM 15.1 °F - 1.9 °F 56% 29.41 in 10.0 mi Calm Calm - N/A   Mostly Cloudy
1:28 PM 17.1 °F - 3.9 °F 56% 29.38 in 10.0 mi Calm Calm - N/A   Overcast
1:53 PM 19.0 °F - 7.0 °F 59% 29.42 in 10.0 mi Calm Calm - N/A   Overcast
2:34 PM 23.0 °F 15.8 °F 10.0 °F 58% 29.40 in 10.0 mi NW 5.8 mph - N/A   Scattered Clouds
2:53 PM 21.9 °F 14.5 °F 8.1 °F 55% 29.44 in 10.0 mi NW 5.8 mph - N/A   Clear
3:53 PM 23.0 °F 13.9 °F 6.1 °F 48% 29.46 in 10.0 mi NNW 8.1 mph - N/A   Clear
4:53 PM 24.1 °F 16.0 °F 7.0 °F 48% 29.47 in 10.0 mi NNW 6.9 mph - N/A   Scattered Clouds
5:53 PM 24.1 °F 16.0 °F 10.9 °F 57% 29.47 in 10.0 mi NW 6.9 mph - N/A   Clear
6:53 PM 21.9 °F 15.7 °F 9.0 °F 58% 29.47 in 10.0 mi NW 4.6 mph - N/A   Clear
7:53 PM 17.1 °F - 7.0 °F 65% 29.47 in 10.0 mi Calm Calm - N/A   Clear
8:53 PM 12.9 °F - 6.1 °F 74% 29.47 in 10.0 mi Calm Calm - N/A   Clear
9:53 PM 16.0 °F 8.8 °F 6.1 °F 65% 29.45 in 10.0 mi ENE 4.6 mph - N/A   Clear
10:53 PM 14.0 °F 6.5 °F 6.1 °F 71% 29.45 in 10.0 mi East 4.6 mph - N/A   Clear
11:53 PM 19.9 °F 7.9 °F 8.1 °F 60% 29.43 in 10.0 mi East 11.5 mph - N/A   Clear